{"data":{"norad_id":58193,"epoch":"2026-09-20T21:43:35.255424Z","epoch_age_seconds":108628,"freshness":"FRESH","line1":"1 58193U 23167U   26263.90526916  .00031520  00000+0  10561-2 0  9997","line2":"2 58193  43.0015 120.6759 0004745 260.6140  99.4177 15.30351321160840","mean_motion":15.30351321,"eccentricity":0.0004745,"inclination_deg":43.0015,"raan_deg":120.6759,"arg_perigee_deg":260.614,"mean_anomaly_deg":99.4177,"bstar":0.0010561,"rev_number":16084,"period_min":94.096040578384,"perigee_km":471.5115882319,"apogee_km":478.01499060656,"semimajor_km":6852.9002894192,"source":"CELESTRAK","updated_at":"2026-09-21T09:00:33.829756Z"}}